sat.trackr.live / text

‹ back to catalog

STARLINK-11240 [DTC]

NORAD 60929 · 2024-155F

PAYLOAD ACTIVE UNKNOWN

§ Identity

Operator
Country
US
Launch date
2024-08-31
Launch site
AFWTR
Launch vehicle
Mass (kg)
RCS (m²)

Purposes: comms

External: N2YO · Heavens-Above · Gunter

§ Orbital elements

Epoch: 2026-05-24T21:45:39.858048Z

Period
91.74 min
Inclination
53.1591°
Eccentricity
0.0000822
Mean motion
15.69710130 rev/d
Perigee alt
359.2 km
Apogee alt
360.3 km
Semi-major
6,737.9 km
B*
1.0831e-5
RAAN
325.4902°
Arg perigee
100.3375°
Mean anomaly
259.7736°
Rev number
10,037

§ Raw data

STARLINK-11240 [DTC]1 60929U 24155F   26144.90671132  .00000724  00000+0  10831-4 0  99982 60929  53.1591 325.4902 0000822 100.3375 259.7736 15.69710130100371

JSON: /api/v1/satellites/60929 · /tle

For live sub-satellite position, see the globe view (requires WebGL).

§ Visibility from observer

Set your observer location to see the next 7 days of passes ≥ 10°. The values pass through the URL so the page stays shareable.

No JS? Fill the form by hand. The geolocation button needs JavaScript.